This is the latest recevied weather packets stored in our database for station/object KI2K. If no packets are shown the sender has not sent any weather packets the latest 10 day(s).
| Time | Temp. | Humidity | Pressure | Rain* | Wind** | Luminosity | Snow |
|---|---|---|---|---|---|---|---|
| 1777489347 | 17.22° C | 62% | 1011.5 hPa | 0 mm | - | 727 W/m² | - |
| 1777489045 | 17.22° C | 63% | 1011.8 hPa | 0 mm | - | 303 W/m² | - |
| 1777488741 | 17.22° C | 63% | 1011.6 hPa | 0 mm | - | 227 W/m² | - |
| 1777488439 | 17.22° C | 62% | 1011.7 hPa | 0 mm | - | 276 W/m² | - |
| 1777488137 | 16.67° C | 65% | 1011.7 hPa | 0 mm | - | 387 W/m² | - |
| 1777487835 | 17.22° C | 64% | 1011.5 hPa | 0 mm | - | 278 W/m² | - |
| 1777487533 | 17.22° C | 65% | 1011.3 hPa | 0 mm | - | 363 W/m² | - |
| 1777487230 | 16.11° C | 66% | 1011.5 hPa | 0 mm | - | 413 W/m² | - |
| 1777486926 | 16.11° C | 69% | 1011.3 hPa | 0 mm | - | 177 W/m² | - |
| 1777486623 | 16.67° C | 67% | 1011.4 hPa | 0 mm | - | 189 W/m² | - |
| 1777486321 | 15.56° C | 69% | 1011.4 hPa | 0 mm | - | 219 W/m² | - |
| 1777486018 | 16.67° C | 70% | 1011.5 hPa | 0 mm | - | 132 W/m² | - |
| 1777485714 | 16.67° C | 69% | 1011.4 hPa | 0 mm | - | 241 W/m² | - |
| 1777485409 | 16.11° C | 68% | 1011.1 hPa | 0 mm | - | 192 W/m² | - |
| 1777485105 | 16.11° C | 69% | 1011.1 hPa | 0 mm | - | 248 W/m² | - |
| 1777484803 | 16.67° C | 68% | 1011.1 hPa | 0 mm | - | 219 W/m² | - |
| 1777484499 | 16.11° C | 69% | 1011.1 hPa | 0 mm | - | 249 W/m² | - |
| 1777484197 | 16.11° C | 69% | 1011.3 hPa | 0 mm | - | 194 W/m² | - |
| 1777483892 | 16.67° C | 69% | 1011.3 hPa | 0 mm | - | 220 W/m² | - |
| 1777483589 | 17.22° C | 70% | 1011.2 hPa | 0 mm | - | 305 W/m² | - |
| 1777483289 | 16.11° C | 71% | 1011.1 hPa | 0 mm | - | 884 W/m² | - |
| 1777482985 | 16.67° C | 72% | 1011.2 hPa | 0 mm | - | 158 W/m² | - |
| 1777482682 | 16.67° C | 70% | 1011 hPa | 0 mm | - | 171 W/m² | - |
| 1777482378 | 17.78° C | 68% | 1011.1 hPa | 0 mm | - | 244 W/m² | - |
| 1777482076 | 17.22° C | 68% | 1011.4 hPa | 0 mm | - | 832 W/m² | - |
* Rain latest hour (hover to see other rain measurements)
** Current wind speed in m/s (hover to see current wind gust speed)